KLM260 DTTA-LEIB

Flight info

Callsign KLM260
Flight time N/A
Altitude 38000
Route KEMIR2A KEMIR DCT TBK DCT TALEL DCT PAGRE DCT LUXUR DCT GENIO DCT XARON DCT OLMIR DCT NINES
Aircraft A321/M-SDE3FGHIRWY/LB1

Departure

Time 2026-04-27 15:08
Airport Tunis Carthage International Airport (DTTA)

Arrival

Time N/A
Airport Ibiza Airport (LEIB)
Time Latitude Longitude Altitude Speed Heading
2026-04-27 14:20 36.84654 10.21950 23 ft 0 kts 198°
2026-04-27 14:54 36.84664 10.21954 23 ft 3 kts 198°
2026-04-27 14:54 36.84682 10.21961 23 ft 3 kts 198°
2026-04-27 14:54 36.84700 10.21965 25 ft 3 kts 152°
2026-04-27 14:54 36.84713 10.21949 25 ft 3 kts 120°
2026-04-27 14:55 36.84716 10.21942 24 ft 0 kts 120°
2026-04-27 14:58 36.84716 10.21943 24 ft 1 kts 120°
2026-04-27 14:58 36.84701 10.21974 25 ft 6 kts 121°
2026-04-27 14:59 36.84675 10.22028 24 ft 3 kts 122°
2026-04-27 14:59 36.84671 10.22035 23 ft 0 kts 123°
2026-04-27 14:59 36.84670 10.22037 23 ft 0 kts 123°
2026-04-27 14:59 36.84658 10.22061 24 ft 8 kts 123°
2026-04-27 15:00 36.84650 10.22075 23 ft 1 kts 123°
2026-04-27 15:00 36.84648 10.22080 24 ft 1 kts 123°
2026-04-27 15:00 36.84645 10.22084 23 ft 1 kts 123°
2026-04-27 15:01 36.84644 10.22087 23 ft 0 kts 123°
2026-04-27 15:01 36.84643 10.22089 23 ft 0 kts 123°
2026-04-27 15:01 36.84641 10.22093 23 ft 1 kts 123°
2026-04-27 15:01 36.84637 10.22101 24 ft 2 kts 123°
2026-04-27 15:02 36.84631 10.22111 24 ft 0 kts 123°
2026-04-27 15:02 36.84630 10.22113 23 ft 0 kts 123°
2026-04-27 15:02 36.84594 10.21983 23 ft 0 kts 296°
2026-04-27 15:03 36.84594 10.21982 24 ft 0 kts 296°
2026-04-27 15:03 36.84595 10.21980 23 ft 0 kts 301°
2026-04-27 15:03 36.84603 10.21983 24 ft 1 kts 20°
2026-04-27 15:04 36.84602 10.21993 25 ft 3 kts 94°
2026-04-27 15:04 36.84564 10.22048 22 ft 14 kts 131°
2026-04-27 15:04 36.84507 10.22138 22 ft 14 kts 111°
2026-04-27 15:04 36.84460 10.22234 21 ft 14 kts 160°
2026-04-27 15:05 36.84344 10.22214 20 ft 21 kts 194°
2026-04-27 15:05 36.84167 10.22163 20 ft 31 kts 194°
2026-04-27 15:05 36.83957 10.22109 18 ft 20 kts 193°
2026-04-27 15:05 36.83866 10.22160 17 ft 17 kts 97°
2026-04-27 15:06 36.83882 10.22247 19 ft 0 kts 61°
2026-04-27 15:06 36.83884 10.22252 18 ft 1 kts 58°
2026-04-27 15:06 36.83891 10.22266 19 ft 4 kts 58°
2026-04-27 15:07 36.83917 10.22318 19 ft 11 kts 58°
2026-04-27 15:07 36.83990 10.22389 17 ft 15 kts 22°
2026-04-27 15:07 36.84222 10.22459 18 ft 74 kts 13°
2026-04-27 15:07 36.84998 10.22671 27 ft 149 kts 12°
2026-04-27 15:08 36.86069 10.22957 657 ft 155 kts 13°
2026-04-27 15:08 36.87145 10.23228 1379 ft 163 kts 14°
2026-04-27 15:08 36.88291 10.23520 2024 ft 173 kts 14°
2026-04-27 15:08 36.89534 10.23846 2516 ft 190 kts 12°
2026-04-27 15:09 36.90875 10.24208 2951 ft 206 kts 12°
2026-04-27 15:09 36.92343 10.24625 3256 ft 224 kts 12°
2026-04-27 15:09 36.93879 10.25061 3730 ft 228 kts 12°
2026-04-27 15:09 36.95465 10.25216 4240 ft 231 kts 354°
2026-04-27 15:10 36.97009 10.24684 4744 ft 231 kts 333°
2026-04-27 15:10 36.98317 10.23523 5221 ft 232 kts 314°
2026-04-27 15:10 36.99240 10.21872 5637 ft 238 kts 295°
2026-04-27 15:10 36.99674 10.19771 5965 ft 266 kts 272°
2026-04-27 15:11 36.99385 10.17462 7000 ft 269 kts 249°
2026-04-27 15:11 36.98438 10.15451 8296 ft 271 kts 230°
2026-04-27 15:11 36.97130 10.13722 9370 ft 277 kts 227°
2026-04-27 15:11 36.95777 10.11995 9817 ft 278 kts 227°
2026-04-27 15:12 36.94419 10.10285 10465 ft 283 kts 227°
2026-04-27 15:12 36.93035 10.08546 11680 ft 283 kts 227°
2026-04-27 15:12 36.91648 10.06794 12812 ft 286 kts 228°
2026-04-27 15:12 36.90273 10.04974 13900 ft 289 kts 234°
2026-04-27 15:13 36.89161 10.02867 14872 ft 291 kts 245°
2026-04-27 15:13 36.88416 10.00515 15850 ft 293 kts 256°
2026-04-27 15:13 36.87913 9.98027 16829 ft 297 kts 257°
2026-04-27 15:13 36.87403 9.95509 17809 ft 302 kts 256°
2026-04-27 15:14 36.86881 9.92954 18723 ft 306 kts 256°
2026-04-27 15:14 36.86346 9.90357 19580 ft 310 kts 256°
2026-04-27 15:14 36.85803 9.87734 20444 ft 314 kts 256°
2026-04-27 15:14 36.85250 9.85078 21313 ft 317 kts 256°
2026-04-27 15:15 36.84705 9.82395 22198 ft 321 kts 258°
2026-04-27 15:15 36.84449 9.79617 23078 ft 325 kts 267°
2026-04-27 15:15 36.84406 9.76784 23897 ft 328 kts 267°
2026-04-27 15:15 36.84360 9.73924 24619 ft 331 kts 267°
2026-04-27 15:16 36.84312 9.71045 25331 ft 334 kts 267°
2026-04-27 15:16 36.84259 9.68131 26028 ft 337 kts 267°
2026-04-27 15:16 36.84203 9.65189 26711 ft 341 kts 267°
2026-04-27 15:16 36.84147 9.62220 27439 ft 342 kts 267°
2026-04-27 15:17 36.84090 9.59248 28162 ft 343 kts 267°
2026-04-27 15:17 36.84032 9.56258 28848 ft 346 kts 267°
2026-04-27 15:17 36.83973 9.53238 29503 ft 349 kts 267°
2026-04-27 15:17 36.83914 9.50206 30128 ft 352 kts 267°
2026-04-27 15:18 36.83855 9.47135 30669 ft 354 kts 267°
2026-04-27 15:18 36.83830 9.44053 31255 ft 355 kts 271°
2026-04-27 15:18 36.84132 9.41034 31979 ft 354 kts 279°
2026-04-27 15:18 36.84807 9.38082 32735 ft 353 kts 285°
2026-04-27 15:19 36.85579 9.35191 33483 ft 349 kts 285°
2026-04-27 15:19 36.86337 9.32323 34175 ft 346 kts 285°
2026-04-27 15:19 36.87088 9.29474 34778 ft 344 kts 285°
2026-04-27 15:19 36.87836 9.26631 35234 ft 345 kts 285°
2026-04-27 15:20 36.88583 9.23774 35675 ft 346 kts 285°
2026-04-27 15:20 36.89333 9.20916 36158 ft 346 kts 285°
2026-04-27 15:20 36.90080 9.18063 36677 ft 345 kts 285°
2026-04-27 15:20 36.90825 9.15220 37169 ft 343 kts 286°
2026-04-27 15:21 36.91566 9.12389 37660 ft 342 kts 286°
2026-04-27 15:21 36.92305 9.09562 37982 ft 343 kts 286°
2026-04-27 15:21 36.93779 9.03903 38035 ft 342 kts 286°
2026-04-27 15:22 36.95251 8.98251 38029 ft 342 kts 286°
2026-04-27 15:22 36.96722 8.92592 38030 ft 342 kts 286°
2026-04-27 15:23 36.98200 8.86943 38030 ft 342 kts 287°
2026-04-27 15:23 36.99848 8.81353 38028 ft 342 kts 289°
2026-04-27 15:24 37.01563 8.75795 38028 ft 342 kts 289°
2026-04-27 15:24 37.02880 8.71454 38032 ft 342 kts 288°
2026-04-27 15:25 37.04544 8.65863 38024 ft 343 kts 288°
2026-04-27 15:25 37.06128 8.60236 38043 ft 342 kts 282°
2026-04-27 15:26 37.07254 8.54434 38041 ft 342 kts 282°
2026-04-27 15:26 37.08393 8.48641 38052 ft 343 kts 283°
2026-04-27 15:27 37.09531 8.42848 38055 ft 343 kts 283°
2026-04-27 15:27 37.10658 8.37083 38056 ft 343 kts 282°
2026-04-27 15:28 37.11790 8.31268 38048 ft 343 kts 283°
2026-04-27 15:28 37.12921 8.25450 38049 ft 344 kts 283°
2026-04-27 15:29 37.14043 8.19621 38051 ft 344 kts 283°
2026-04-27 15:29 37.15166 8.13794 38055 ft 344 kts 283°
2026-04-27 15:30 37.16294 8.07949 38058 ft 345 kts 283°
2026-04-27 15:30 37.17413 8.02114 38059 ft 345 kts 282°
2026-04-27 15:31 37.18528 7.96261 38044 ft 345 kts 282°
2026-04-27 15:31 37.19643 7.90414 38049 ft 345 kts 282°
2026-04-27 15:32 37.20754 7.84571 38053 ft 345 kts 282°
2026-04-27 15:32 37.21861 7.78718 38057 ft 345 kts 282°
2026-04-27 15:33 37.22967 7.72851 38070 ft 346 kts 282°
2026-04-27 15:33 37.24076 7.66973 38046 ft 347 kts 282°
2026-04-27 15:34 37.25185 7.61080 38044 ft 347 kts 282°
2026-04-27 15:34 37.26292 7.55175 38055 ft 348 kts 282°
2026-04-27 15:35 37.27397 7.49258 38054 ft 348 kts 282°
2026-04-27 15:35 37.28496 7.43338 38055 ft 349 kts 282°
2026-04-27 15:36 37.29597 7.37400 38060 ft 349 kts 282°
2026-04-27 15:36 37.30698 7.31465 38062 ft 349 kts 282°
2026-04-27 15:37 37.31791 7.25568 38063 ft 349 kts 282°
2026-04-27 15:37 37.32883 7.19613 38065 ft 349 kts 282°
2026-04-27 15:38 37.33974 7.13671 38061 ft 349 kts 282°
2026-04-27 15:38 37.35063 7.07728 38062 ft 349 kts 282°
2026-04-27 15:39 37.36149 7.01785 38063 ft 349 kts 282°
2026-04-27 15:39 37.37231 6.95839 38063 ft 349 kts 282°
2026-04-27 15:40 37.38311 6.89894 38065 ft 349 kts 282°
2026-04-27 15:40 37.39385 6.83941 38059 ft 349 kts 282°
2026-04-27 15:41 37.40452 6.77997 38058 ft 349 kts 282°
2026-04-27 15:41 37.41518 6.72037 38058 ft 349 kts 282°
2026-04-27 15:42 37.42586 6.66087 38056 ft 349 kts 282°
2026-04-27 15:42 37.43650 6.60125 38059 ft 349 kts 282°
2026-04-27 15:43 37.44709 6.54162 38058 ft 349 kts 282°
2026-04-27 15:43 37.45768 6.48199 38055 ft 349 kts 282°
2026-04-27 15:44 37.46826 6.42235 38048 ft 349 kts 282°
2026-04-27 15:44 37.47878 6.36266 38052 ft 349 kts 282°
2026-04-27 15:45 37.48926 6.30292 38053 ft 349 kts 282°
2026-04-27 15:45 37.49971 6.24312 38052 ft 349 kts 282°
2026-04-27 15:46 37.51016 6.18342 38051 ft 349 kts 282°
2026-04-27 15:46 37.52048 6.12407 38050 ft 349 kts 281°
2026-04-27 15:47 37.53093 6.06398 38039 ft 349 kts 281°
2026-04-27 15:47 37.54135 6.00421 38042 ft 350 kts 281°
2026-04-27 15:48 37.55166 5.94465 38044 ft 350 kts 281°
2026-04-27 15:49 37.56703 5.85460 38050 ft 350 kts 281°
2026-04-27 15:49 37.57723 5.79454 38063 ft 350 kts 281°
2026-04-27 15:50 37.58748 5.73431 38054 ft 351 kts 281°
2026-04-27 15:50 37.59778 5.67399 38047 ft 352 kts 281°
2026-04-27 15:51 37.60801 5.61350 38047 ft 353 kts 281°
2026-04-27 15:51 37.61827 5.55282 38049 ft 353 kts 281°
2026-04-27 15:52 37.62845 5.49213 38049 ft 354 kts 281°
2026-04-27 15:52 37.63864 5.43138 38055 ft 354 kts 281°
2026-04-27 15:53 37.64884 5.37060 38057 ft 354 kts 281°
2026-04-27 15:53 37.65898 5.30981 38052 ft 354 kts 281°
2026-04-27 15:54 37.66902 5.24905 38056 ft 354 kts 281°
2026-04-27 15:54 37.67907 5.18828 38060 ft 354 kts 281°
2026-04-27 15:55 37.68908 5.12755 38062 ft 353 kts 281°
2026-04-27 15:55 37.69907 5.06669 38064 ft 354 kts 281°
2026-04-27 15:56 37.70923 5.00599 38069 ft 354 kts 284°
2026-04-27 15:56 37.72718 4.94795 38063 ft 355 kts 290°
2026-04-27 15:57 37.74608 4.89026 38059 ft 355 kts 290°
2026-04-27 15:57 37.76485 4.83251 38061 ft 355 kts 290°
2026-04-27 15:58 37.78358 4.77483 38059 ft 355 kts 290°
2026-04-27 15:58 37.80215 4.71778 38059 ft 355 kts 290°
2026-04-27 15:59 37.82101 4.65950 38061 ft 355 kts 290°
2026-04-27 15:59 37.83959 4.60207 38062 ft 355 kts 290°
2026-04-27 16:00 37.85829 4.54409 38059 ft 356 kts 290°
2026-04-27 16:00 37.87700 4.48611 38072 ft 356 kts 290°
2026-04-27 16:01 37.89571 4.42794 38065 ft 357 kts 290°
2026-04-27 16:01 37.91437 4.36969 38061 ft 358 kts 290°
2026-04-27 16:02 37.93312 4.31124 38060 ft 358 kts 290°
2026-04-27 16:02 37.95184 4.25277 38061 ft 358 kts 290°
2026-04-27 16:03 37.97058 4.19426 38058 ft 358 kts 290°
2026-04-27 16:03 37.98945 4.13575 38056 ft 359 kts 290°
2026-04-27 16:04 38.00844 4.07724 38053 ft 359 kts 290°
2026-04-27 16:04 38.01814 4.02677 38055 ft 356 kts 268°
2026-04-27 16:04 38.01382 3.99602 38055 ft 357 kts 250°
2026-04-27 16:05 38.00161 3.96852 38058 ft 362 kts 232°
2026-04-27 16:05 37.98267 3.94736 38059 ft 369 kts 217°
2026-04-27 16:05 37.96081 3.92997 38059 ft 371 kts 216°
2026-04-27 16:06 37.91699 3.89549 38056 ft 371 kts 216°
2026-04-27 16:06 37.87308 3.86098 38042 ft 371 kts 216°
2026-04-27 16:07 37.82928 3.82652 38039 ft 370 kts 216°
2026-04-27 16:07 37.78533 3.79182 37247 ft 381 kts 216°
2026-04-27 16:07 37.76235 3.77347 35800 ft 402 kts 216°
2026-04-27 16:08 37.74368 3.75840 34654 ft 418 kts 216°